Location: Unspecified
(50.7693°N, 0.0000°E)
Time: 00:39:33
(UTC+00:00)

SR - Pass Details

Date: 01 July 2019
Orbit: 578 x 878 km, 66.7° (Epoch: 19 August)

Event Time Altitude Azimuth Distance (km) Brightness Sun altitude
Rises 07:40:51 0° 323° (NW) 2,948 ? 32.9°
Reaches altitude 10° 07:43:37 10° 341° (NNW) 2,086 ? 33.3°
Maximum altitude 07:47:09 20° 29° (NNE) 1,575 ? 33.9°
Drops below altitude 10° 07:50:51 10° 77° (ENE) 2,224 ? 34.5°
Sets 07:53:55 0° 94° (E) 3,207 ? 35.0°
